Regional Weather Roundup
Issued by NWS Sterling, VA

Home | Current Version | Previous Version | Graphics & Text | Print | Product List | Glossary On
Versions: 1 2 3 4 5 6 7 8 9 10 11 12 13 14 15 16 17 18 19 20 21 22 23 24 25 26 27
000
ASUS41 KLWX 251410
RWRLWX

REGIONAL WEATHER ROUNDUP
NATIONAL WEATHER SERVICE BALTIMORE MD/WASHINGTON DC
1000 AM EDT SAT MAR 25 2017

Note: "FAIR" indicates few or no clouds below 12,000 feet
with no significant weather and/or obstructions to visibility.
 TC=TEMPERATURE CELSIUS

 * =Non NWS site. Station does not report precipitation (e.g. rain,
    snow, etc.), thunder, or fog.

DCZ001-MDZ009-015-VAZ040>042-051-053>054-251500-
WASHINGTON METRO

CITY           SKY/WX    TMP DP  RH WIND       PRES   REMARKS
WASHINGTON NAT PTSUNNY   62  50  64 S9        30.21S
DULLES         CLOUDY    64  48  56 S8        30.19F
ANDREWS AFB    CLOUDY    65  48  54 SW10      30.19S
FT BELVOIR     MOSUNNY   65  48  54 S6        30.20S
QUANTICO       MOSUNNY   55  49  80 S7        30.22F
COLLEGE PARK*  MOSUNNY   63  46  55 S5        30.19S
LEESBURG*      CLOUDY    64  54  68 SW5       30.20S
MANASSAS*      MOSUNNY   65  49  56 S5        30.21S

$$

MDZ006>007-011-014-251500-
BALTIMORE METRO

CITY           SKY/WX    TMP DP  RH WIND       PRES   REMARKS
BWI AIRPORT    CLOUDY    65  49  56 W8        30.18S
MD SCIENCE CTR   N/A     64  47  53 MISG      30.21R
MARTIN STATE   CLOUDY    57  52  82 CALM      30.20S
ANNAPOLIS      CLOUDY    67  49  52 W7        30.19S
FORT MEADE*    CLOUDY    64  46  52 SW7       30.21S

$$

MDZ012-015-019>023-251500-
MARYLAND EASTERN SHORE

CITY           SKY/WX    TMP DP  RH WIND       PRES   REMARKS
OCEAN CITY     CLOUDY    64  49  57 SW15G22   30.22F
SALISBURY      MOSUNNY   64  50  60 SW15G29   30.22F
BAY BRIDGE AP* CLOUDY    64  48  55 S8        30.19S
CAMBRIDGE*     SUNNY     64  50  59 VRB7      30.22S
EASTON*        MOSUNNY   61  48  63 SW9       30.24S

$$

MDZ017>025-251500-
SOUTHERN MARYLAND

CITY           SKY/WX    TMP DP  RH WIND       PRES   REMARKS
PATUXENT RIVER PTSUNNY   63  52  67 W13       30.21F
ST INIGOES     CLOUDY    61  49  64 SW9       30.22F
LEONARDTOWN*   CLOUDY    63  46  55 SW12G18   30.23F

$$

MDZ003>005-251500-
NORTH CENTRAL MARYLAND

CITY           SKY/WX    TMP DP  RH WIND       PRES   REMARKS
FREDERICK*     SUNNY     61  52  72 SW3       30.20F
HAGERSTOWN APT CLOUDY    63  49  60 S8        30.17S
WESTMINSTER*   CLOUDY    63  50  63 SW9       30.18R

$$

MDZ501>502-251500-
WESTERN MARYLAND

CITY           SKY/WX    TMP DP  RH WIND       PRES   REMARKS
OAKLAND*       MOSUNNY   55  45  67 W12       30.24R
CUMBERLAND*    CLOUDY    68  50  52 S3        30.22R

$$

VAZ025>031-251500-
SHENANDOAH VALLEY

CITY           SKY/WX    TMP DP  RH WIND       PRES   REMARKS
WINCHESTER*    CLOUDY    63  46  55 SW9       30.19S
FRONT ROYAL*   CLOUDY    64  50  59 S9        30.19S
LURAY*         CLOUDY    64  52  63 SW10      30.21S
NEW MARKET*    MOSUNNY   61  48  61 SW7       30.21S
STAUNTON*      MOSUNNY   63  48  59 S3        30.25S
WAYNESBORO*    MOSUNNY   64  50  59 SW9       30.24R

$$

WVZ021-048>050-054>055-251500-
EASTERN WEST VIRGINIA PANHANDLE

CITY           SKY/WX    TMP DP  RH WIND       PRES   REMARKS
MARTINSBURG    CLOUDY    64  49  57 SW5       30.17S
PETERSBURG*    MOSUNNY   66  52  61 E3        30.20S

$$

VAZ036>039-050-251500-
CENTRAL FOOTHILLS

CITY           SKY/WX    TMP DP  RH WIND       PRES   REMARKS
CHARLOTTESVILL PTSUNNY   65  49  56 S7        30.22S
CULPEPER*      MOSUNNY   64  50  60 SW6       30.22S
ORANGE*        MOSUNNY   63  48  59 SW8       30.23S
GORDONSVILLE*  CLOUDY    63  49  61 SW13      30.22S
WARRENTON*     SUNNY     66  46  47 SW7       30.20F

$$

VAZ055>057-251500-
NORTH AND CENTRAL PIEDMONT

CITY           SKY/WX    TMP DP  RH WIND       PRES   REMARKS
FREDERICKSBRG* MOSUNNY   65  51  60 SW10      30.21F
STAFFORD*      MOSUNNY   64  49  59 SW8       30.25S

$$

NCZ024-NYZ072-PAZ021-071-VAZ022-071-251500-
OTHER REGIONAL OBSERVATIONS

CITY           SKY/WX    TMP DP  RH WIND       PRES   REMARKS
NEW YORK CITY  CLOUDY    57  39  51 CALM      30.18S
PHILADELPHIA   CLOUDY    58  47  66 SW12      30.17S
PITTSBURGH     CLOUDY    66  50  56 SW13      30.16S
ROANOKE        MOSUNNY   62  47  57 S5        30.29R
RICHMOND       CLOUDY    65  50  58 SW14      30.25F
RALEIGH        PTSUNNY   64  52  64 SW14      30.34F

$$

ANZ530>537-251500-
MARINE OBSERVATIONS

STATION/POSITION TIME  TEMP    WIND        PRES
                       AIR SEA DIR/SP/G
                 (UTC) (F)     (DEG/KT/KT) (MB)
THOMAS PT LIGHT  1300   60 44  240/ 11/ 11   N/A
BALT KEY BRIDGE  1336   61     240/  7/  9 1022.0F
COVE POINT       1336   61     270/ 22/ 31 1023.0S
LEWISETTA        1336   61 48  260/ 16/ 20 1023.1F
SOLOMONS ISLAND  1336   61 46  260/ 10/ 15   N/A
PINEY POINT      1342          300/  7/  8   N/A

$$





USA.gov is the U.S. government's official web portal to all federal, state and local government web resources and services.